Weather in Buryn

Ukraine / Sumi District     51°11′44″N   33°49′35″E
temp.,
°C
wind,
m/s
gust,
m/s
humid.,
%
clouds,
%
prec.,
mm/h
press.,
hPa
HPBL,
m
12 may, wed
wed1200:00+7ene412890 0.0 1021358
03:00+6ene5139398 0.0 1021431
06:00+7ene5158421 0.0 1021736
09:00+10e7107661 0.0 1021943
12:00+11ese5976100 0.2 10201071
15:00+10ese5784100 2.1 1018989
18:00+11ene368113 1.1 1016584
21:00+9e4109193 1.7 1015477
13 may, thu
thu1300:00+6e379789 0.0 1013152
03:00+6e3798100 0.3 1012257
06:00+7se479371 0.4 1012453
09:00+7sse5688100 0.4 1013663
12:00+11s577398 0.1 10131181
15:00+14sse566673 0.2 10131170
18:00+14s24717 0.1 1013153
21:00+11se3478100 0.1 101345
14 may, fri
fri1400:00+10ese4779100 0.0 101393
03:00+10ese3679100 0.0 1012112
06:00+10ese3109452 0.3 1011253
09:00+16se598096 0.4 1010495
12:00+21sse686821 0.0 10091385
15:00+22s696198 0.3 10081608
18:00+21s487173 0.2 1008686
21:00+16ssw33897 0.3 100926
15 may, sat
sat1500:00+14s228778 0.1 100812
03:00+13sse229394 1.8 100818
06:00+12ssw379557 0.0 1009154
09:00+16sw58775 0.0 1009518
12:00+19sw68657 0.0 10101347
15:00+19sw56675 1.6 10111201
18:00+19sw35709 0.4 10111047
21:00+14sw338771 0.5 101231
16 may, sun
sun1600:00+12sw229037 0.0 101212
03:00+11s118980 0.0 101310
06:00+12sse11900 0.0 101310
09:00+17ese22746 0.0 1013400
12:00+21ese2261100 0.0 10131140
15:00+22e2255100 0.0 10121699
18:00+22ne346598 0.0 1011256
21:00+16ene4681100 0.0 101172